Temp
-31 -32 -33 -33 -33 -32 -33 -32 -32 -32 -31 -31 -30 -30 -30 -28 -28 -27 -27 -26 -24 -22 -22 -21 -21 -21 -20 -20 -20 -19 -20 -19 -18 -16 -15 -15 -14 -14 -14 -14 -14 -14 -13 -13
-32 -33 -33 -33 -33 -33 -34 -34 -33 -33 -32 -32 -32 -31 -30 -29 -28 -28 -27 -26 -24 -23 -22 -21 -21 -21 -21 -20 -20 -19 -19 -19 -18 -17 -16 -16 -16 -15 -14 -14 -14 -14 -13 -13
-32 -32 -32 -32 -32 -33 -34 -34 -34 -34 -33 -32 -32 -32 -31 -30 -29 -28 -27 -27 -26 -25 -23 -22 -22 -21 -21 -21 -21 -20 -19 -19 -18 -17 -16 -15 -15 -16 -15 -14 -13 -14 -14 -13
-32 -33 -33 -32 -32 -33 -34 -34 -33 -34 -34 -33 -32 -32 -32 -30 -29 -29 -28 -27 -26 -25 -24 -22 -21 -21 -21 -21 -21 -20 -19 -19 -18 -17 -15 -15 -15 -16 -15 -15 -14 -14 -13 -13
-32 -33 -33 -33 -34 -34 -34 -34 -34 -35 -34 -34 -33 -32 -32 -31 -29 -28 -28 -27 -26 -25 -24 -23 -22 -21 -21 -21 -20 -20 -20 -19 -18 -18 -16 -15 -15 -15 -15 -15 -15 -14 -13 -12
-32 -33 -33 -33 -33 -33 -34 -34 -34 -34 -34 -34 -33 -32 -31 -31 -29 -28 -27 -27 -26 -26 -25 -25 -23 -21 -21 -20 -20 -20 -20 -19 -18 -17 -16 -16 -15 -15 -16 -15 -14 -15 -14 -13
-31 -32 -33 -33 -33 -33 -34 -34 -33 -33 -33 -33 -33 -33 -32 -31 -30 -29 -28 -27 -26 -26 -26 -25 -25 -24 -22 -21 -21 -21 -21 -20 -19 -17 -17 -16 -16 -15 -15 -15 -15 -15 -15 -14
-30 -32 -32 -33 -33 -34 -33 -33 -33 -33 -33 -33 -33 -33 -33 -33 -30 -29 -29 -28 -27 -26 -26 -26 -25 -25 -24 -24 -23 -22 -23 -23 -21 -19 -17 -17 -16 -16 -15 -15 -15 -15 -15 -14
-30 -31 -32 -33 -35 -34 -34 -34 -33 -33 -33 -33 -33 -33 -33 -33 -33 -31 -29 -28 -27 -27 -26 -26 -25 -25 -25 -25 -24 -23 -23 -23 -21 -20 -19 -18 -17 -16 -15 -15 -15 -15 -15 -16
-29 -30 -31 -34 -35 -34 -34 -34 -34 -33 -32 -33 -33 -32 -32 -32 -32 -32 -31 -29 -28 -27 -27 -26 -26 -25 -25 -25 -25 -25 -23 -23 -21 -21 -20 -20 -17 -16 -15 -16 -15 -16 -16 -15
-29 -30 -30 -32 -32 -33 -33 -34 -33 -33 -32 -32 -32 -32 -32 -32 -32 -32 -32 -31 -29 -27 -26 -26 -26 -25 -25 -25 -25 -25 -25 -23 -23 -21 -21 -20 -19 -18 -17 -17 -16 -16 -16 -15
-28 -29 -30 -30 -30 -32 -32 -32 -32 -32 -32 -32 -32 -32 -32 -32 -32 -32 -32 -32 -31 -30 -28 -26 -26 -25 -25 -25 -25 -25 -25 -24 -22 -21 -20 -20 -20 -18 -17 -17 -18 -16 -16 -15
-28 -29 -29 -30 -30 -30 -31 -31 -31 -31 -31 -31 -31 -31 -31 -31 -31 -31 -31 -31 -31 -31 -30 -28 -26 -25 -25 -24 -24 -24 -24 -24 -23 -22 -21 -20 -20 -19 -18 -18 -17 -17 -17 -16
-28 -29 -29 -30 -30 -30 -30 -31 -31 -31 -31 -31 -31 -31 -31 -31 -31 -31 -31 -31 -31 -31 -31 -30 -29 -27 -25 -24 -24 -24 -24 -24 -24 -23 -22 -21 -20 -20 -19 -19 -18 -18 -17 -17
-27 -28 -29 -29 -29 -30 -30 -30 -30 -31 -31 -32 -32 -32 -32 -31 -31 -31 -31 -31 -31 -31 -31 -30 -30 -29 -28 -26 -25 -24 -24 -23 -23 -24 -23 -22 -21 -21 -19 -19 -18 -18 -18 -17
-26 -28 -29 -29 -29 -29 -29 -29 -30 -30 -30 -30 -31 -32 -32 -32 -32 -31 -31 -31 -31 -30 -30 -30 -30 -29 -29 -28 -27 -25 -24 -23 -23 -23 -23 -23 -22 -21 -20 -19 -19 -19 -19 -19
-25 -27 -28 -28 -29 -28 -29 -29 -29 -29 -29 -30 -30 -31 -31 -32 -32 -32 -31 -31 -30 -30 -30 -29 -29 -29 -29 -29 -29 -28 -26 -24 -23 -23 -23 -23 -23 -23 -22 -21 -20 -20 -19 -19
-25 -27 -27 -28 -28 -28 -28 -29 -28 -29 -29 -29 -29 -30 -30 -30 -30 -30 -31 -31 -30 -30 -29 -29 -29 -29 -29 -29 -29 -29 -28 -27 -26 -24 -23 -23 -22 -22 -22 -22 -22 -21 -20 -19
-25 -26 -27 -27 -28 -28 -28 -28 -28 -28 -28 -29 -29 -29 -29 -29 -29 -29 -29 -30 -30 -30 -29 -29 -29 -29 -28 -28 -28 -28 -28 -28 -27 -26 -25 -24 -22 -22 -22 -22 -22 -22 -21 -21
-25 -26 -27 -27 -28 -28 -28 -29 -29 -28 -28 -28 -28 -29 -29 -29 -29 -29 -29 -29 -29 -28 -28 -29 -29 -29 -29 -29 -28 -28 -28 -28 -28 -28 -27 -26 -26 -24 -23 -23 -22 -22 -22 -21
-25 -25 -26 -27 -28 -28 -28 -28 -29 -28 -28 -28 -28 -29 -28 -28 -29 -29 -29 -29 -29 -28 -28 -28 -28 -29 -29 -30 -30 -29 -29 -29 -29 -29 -28 -28 -28 -27 -26 -24 -23 -22 -22 -22
-25 -25 -26 -27 -27 -28 -28 -29 -29 -29 -29 -29 -29 -29 -29 -29 -29 -29 -29 -29 -29 -28 -28 -28 -28 -29 -30 -30 -31 -31 -31 -31 -31 -31 -30 -29 -29 -28 -28 -27 -26 -25 -24 -23
-25 -25 -26 -27 -27 -28 -28 -29 -29 -29 -29 -29 -29 -29 -29 -29 -29 -29 -29 -29 -28 -28 -28 -28 -29 -30 -31 -31 -32 -32 -32 -32 -32 -32 -32 -31 -31 -30 -29 -28 -28 -28 -27 -26
-25 -25 -26 -26 -27 -28 -28 -29 -29 -29 -29 -29 -29 -29 -30 -29 -29 -29 -29 -29 -29 -29 -29 -29 -30 -30 -32 -33 -33 -33 -33 -33 -33 -33 -33 -32 -32 -32 -32 -31 -30 -29 -28 -28
-26 -26 -26 -26 -27 -28 -28 -29 -29 -29 -29 -29 -29 -30 -30 -30 -30 -29 -29 -29 -29 -30 -30 -30 -31 -31 -32 -33 -34 -34 -34 -34 -34 -34 -34 -33 -33 -33 -33 -32 -32 -32 -31 -31
-26 -26 -26 -26 -27 -28 -29 -29 -29 -29 -30 -30 -30 -30 -30 -30 -30 -30 -30 -30 -30 -30 -31 -31 -32 -32 -32 -33 -34 -35 -35 -35 -35 -35 -35 -35 -35 -34 -34 -34 -33 -33 -33 -33
-25 -26 -26 -26 -27 -28 -29 -29 -29 -30 -30 -30 -30 -30 -30 -30 -30 -30 -31 -31 -31 -31 -32 -32 -32 -32 -33 -33 -33 -35 -36 -36 -36 -36 -36 -36 -36 -36 -35 -35 -34 -34 -33 -33
Height
5550 5544 5538 5535 5533 5531 5529 5527 5525 5523 5520 5519 5519 5518 5518 5517 5516 5516 5517 5518 5522 5526 5530 5534 5537 5546 5555 5563 5572 5581 5587 5596 5604 5613 5625 5634 5640 5645 5655 5665 5673 5682 5688 5693
5546 5542 5537 5532 5529 5527 5524 5521 5518 5516 5514 5511 5511 5511 5511 5511 5510 5510 5511 5511 5515 5519 5522 5526 5532 5537 5544 5551 5559 5567 5575 5583 5590 5599 5609 5619 5624 5633 5641 5653 5660 5667 5674 5679
5548 5542 5536 5531 5527 5523 5519 5514 5509 5506 5505 5504 5504 5504 5503 5503 5503 5504 5505 5506 5507 5510 5512 5517 5523 5529 5534 5539 5547 5553 5561 5569 5577 5584 5594 5604 5613 5621 5628 5638 5646 5652 5660 5664
5544 5537 5532 5528 5524 5520 5516 5511 5505 5499 5497 5495 5496 5496 5495 5496 5496 5496 5497 5499 5501 5503 5506 5509 5516 5522 5525 5529 5534 5541 5547 5555 5562 5570 5579 5588 5598 5607 5618 5623 5631 5639 5644 5653
5541 5535 5529 5524 5520 5518 5514 5510 5503 5498 5494 5490 5487 5486 5486 5488 5489 5490 5491 5493 5495 5497 5500 5503 5508 5513 5516 5521 5524 5528 5533 5539 5548 5556 5563 5573 5582 5592 5603 5611 5617 5626 5632 5622
5537 5532 5527 5523 5519 5516 5512 5508 5503 5498 5493 5488 5483 5481 5479 5481 5484 5486 5487 5487 5490 5492 5492 5497 5500 5504 5506 5509 5512 5516 5519 5523 5530 5540 5548 5557 5570 5579 5589 5598 5602 5611 5618 5618
5537 5529 5524 5519 5516 5512 5510 5508 5500 5495 5491 5486 5482 5478 5473 5473 5476 5479 5481 5482 5483 5486 5488 5491 5494 5494 5496 5497 5499 5503 5506 5510 5515 5523 5533 5541 5553 5565 5576 5583 5591 5598 5603 5609
5533 5525 5520 5515 5511 5508 5504 5499 5495 5492 5489 5484 5479 5477 5472 5468 5466 5469 5473 5474 5477 5479 5481 5484 5485 5487 5488 5490 5488 5492 5496 5501 5503 5507 5518 5526 5539 5552 5562 5571 5577 5584 5590 5594
5531 5523 5514 5508 5505 5501 5498 5494 5491 5489 5485 5482 5478 5475 5471 5467 5463 5460 5462 5466 5469 5471 5474 5476 5479 5482 5482 5482 5480 5483 5488 5492 5497 5502 5507 5511 5525 5536 5548 5556 5564 5570 5578 5580
5534 5526 5515 5507 5502 5497 5493 5491 5488 5485 5482 5479 5476 5473 5469 5466 5462 5459 5456 5456 5460 5463 5465 5468 5472 5474 5477 5477 5475 5474 5478 5482 5488 5492 5497 5504 5512 5523 5533 5541 5547 5554 5563 5565
5534 5524 5516 5509 5502 5496 5491 5487 5484 5483 5480 5477 5473 5470 5467 5463 5460 5458 5454 5451 5451 5454 5457 5460 5462 5465 5468 5469 5469 5469 5469 5472 5481 5481 5489 5496 5501 5510 5519 5524 5535 5543 5547 5553
5536 5528 5522 5515 5505 5497 5490 5486 5484 5482 5478 5474 5471 5467 5464 5460 5457 5455 5452 5450 5447 5446 5447 5450 5453 5456 5459 5461 5462 5463 5464 5465 5470 5474 5479 5484 5490 5496 5504 5510 5517 5526 5533 5539
5537 5529 5524 5517 5510 5502 5495 5490 5486 5482 5477 5472 5468 5464 5461 5457 5454 5452 5449 5447 5445 5443 5441 5441 5443 5445 5448 5451 5454 5457 5459 5460 5462 5463 5467 5473 5478 5484 5491 5499 5505 5514 5521 5528
5537 5530 5525 5518 5512 5506 5499 5493 5487 5480 5475 5469 5464 5460 5456 5453 5450 5447 5446 5443 5441 5440 5438 5435 5434 5435 5438 5441 5444 5446 5450 5453 5454 5456 5457 5462 5468 5473 5481 5487 5493 5499 5506 5513
5538 5532 5526 5520 5514 5507 5500 5493 5486 5479 5472 5465 5458 5453 5450 5447 5444 5442 5440 5438 5437 5435 5433 5431 5429 5428 5428 5429 5433 5436 5439 5443 5446 5448 5449 5453 5458 5463 5468 5474 5479 5485 5490 5497
5539 5532 5526 5520 5514 5509 5502 5496 5489 5482 5473 5464 5455 5446 5441 5438 5437 5436 5434 5433 5432 5430 5428 5426 5425 5423 5422 5423 5423 5425 5428 5431 5435 5439 5441 5444 5447 5451 5455 5460 5466 5471 5475 5482
5542 5534 5528 5522 5516 5511 5505 5498 5490 5483 5475 5467 5458 5449 5441 5435 5431 5429 5427 5426 5424 5423 5421 5420 5419 5418 5416 5414 5414 5416 5416 5419 5423 5428 5431 5434 5438 5441 5444 5448 5454 5458 5463 5468
5540 5533 5528 5523 5517 5511 5506 5499 5492 5485 5478 5471 5463 5455 5448 5441 5435 5430 5426 5422 5418 5415 5414 5413 5412 5410 5409 5407 5406 5406 5407 5408 5409 5411 5416 5420 5425 5431 5434 5436 5440 5445 5447 5452
5541 5534 5527 5522 5516 5511 5506 5500 5494 5488 5481 5474 5467 5460 5454 5447 5440 5434 5429 5424 5419 5414 5409 5406 5404 5401 5400 5399 5399 5399 5398 5398 5397 5398 5401 5405 5410 5414 5418 5425 5428 5430 5433 5437
5540 5532 5525 5520 5515 5510 5506 5501 5495 5489 5483 5477 5471 5464 5457 5450 5444 5437 5430 5425 5419 5413 5407 5401 5397 5393 5390 5387 5387 5388 5388 5388 5388 5387 5387 5390 5392 5394 5399 5403 5407 5413 5417 5420
5538 5531 5523 5518 5514 5509 5505 5501 5496 5490 5484 5478 5472 5466 5460 5453 5445 5438 5430 5423 5416 5410 5403 5397 5390 5385 5381 5377 5374 5372 5372 5373 5373 5373 5373 5374 5375 5376 5378 5382 5387 5392 5397 5402
5536 5528 5521 5515 5511 5507 5503 5499 5495 5490 5485 5479 5473 5467 5460 5453 5446 5438 5430 5422 5414 5406 5399 5391 5383 5375 5368 5365 5363 5361 5359 5358 5357 5358 5358 5359 5359 5360 5361 5363 5365 5369 5374 5378
5532 5526 5519 5512 5507 5504 5500 5497 5493 5489 5484 5479 5474 5468 5461 5454 5447 5439 5431 5423 5414 5404 5394 5384 5374 5364 5358 5351 5347 5346 5346 5345 5345 5344 5344 5343 5343 5344 5344 5345 5346 5348 5350 5355
5527 5523 5516 5509 5504 5501 5497 5494 5491 5487 5483 5478 5473 5467 5461 5455 5447 5439 5431 5422 5413 5403 5393 5384 5373 5363 5354 5348 5343 5338 5334 5333 5332 5331 5330 5329 5328 5327 5327 5327 5328 5329 5330 5332
5522 5518 5512 5505 5500 5497 5493 5490 5487 5484 5480 5476 5471 5466 5461 5455 5448 5440 5431 5422 5412 5403 5393 5384 5374 5365 5355 5347 5342 5337 5332 5327 5323 5320 5318 5316 5314 5311 5310 5310 5310 5309 5309 5310
5516 5512 5507 5501 5496 5492 5489 5486 5483 5480 5477 5473 5469 5464 5459 5454 5447 5438 5430 5421 5413 5403 5393 5384 5375 5366 5357 5347 5339 5333 5328 5323 5318 5313 5308 5303 5299 5296 5294 5292 5291 5290 5290 5291
5509 5506 5501 5496 5491 5487 5484 5482 5479 5476 5473 5470 5466 5462 5457 5451 5445 5437 5429 5421 5413 5404 5395 5386 5376 5366 5357 5347 5338 5330 5323 5317 5311 5305 5299 5294 5289 5284 5280 5276 5273 5272 5271 5270
Wind_Speed
30 30 26 27 25 24 23 22 19 16 17 18 16 20 18 18 18 16 18 16 26 47 55 56 55 55 64 64 65 66 62 71 72 66 64 60 55 63 62 59 59 56 53 49
33 23 29 26 27 29 25 23 20 20 21 21 20 20 17 20 21 18 17 19 24 36 46 60 61 57 58 63 63 67 63 68 69 70 68 66 71 53 60 60 59 60 61 56
26 23 24 27 22 24 30 35 37 28 21 23 23 20 23 20 21 21 22 20 21 22 29 40 51 55 60 61 62 68 69 68 73 74 71 70 66 64 64 53 60 71 66 59
27 25 26 25 23 26 34 31 33 30 28 22 19 20 22 25 24 23 21 23 23 23 28 37 49 53 53 56 55 55 68 72 74 78 76 75 74 70 69 62 63 67 64 61
34 24 25 25 27 30 25 27 30 32 30 29 22 16 21 28 27 27 24 25 24 24 25 32 44 45 48 50 53 52 57 69 77 78 80 80 79 76 71 61 67 67 64 60
31 28 24 22 22 21 21 23 26 23 25 26 27 19 19 30 32 28 28 28 28 25 26 25 31 44 47 48 49 53 54 57 74 82 82 81 79 75 74 72 66 76 77 44
30 28 25 23 21 19 19 24 20 21 23 24 25 25 17 18 32 37 32 28 29 29 25 26 24 29 38 42 45 47 55 60 63 82 85 84 79 78 73 62 66 68 69 69
38 32 30 26 25 26 27 23 22 21 23 24 23 22 21 16 14 33 39 36 30 28 26 23 26 24 25 36 37 40 47 47 45 63 82 88 79 72 72 69 67 63 59 73
42 38 36 36 33 35 35 30 28 25 22 22 22 19 20 18 15 13 26 37 38 34 31 26 27 25 20 24 31 38 40 48 43 37 40 63 80 74 67 70 68 68 67 63
46 42 39 29 35 37 37 31 27 24 21 21 20 18 18 17 17 14 12 25 36 37 38 34 28 28 24 17 20 28 46 44 49 56 57 44 64 75 72 72 68 67 63 60
43 43 43 36 36 33 28 24 18 18 19 18 18 18 18 17 17 16 13 9 22 33 35 33 33 32 28 22 19 20 30 45 46 53 45 48 47 58 53 60 69 62 63 64
44 42 40 41 43 35 27 19 15 17 17 16 17 18 18 18 18 17 16 14 12 13 24 30 31 31 32 29 24 20 22 29 44 47 41 50 53 58 61 55 55 58 57 55
43 40 38 38 38 37 31 22 21 22 22 21 20 20 19 19 19 18 17 17 14 14 12 18 26 27 29 31 28 23 24 27 35 41 54 52 54 52 54 58 62 62 65 65
43 38 36 37 36 34 32 31 30 29 28 27 24 23 22 22 21 21 19 18 17 16 16 15 17 22 25 26 27 28 28 27 31 38 40 44 47 48 51 51 54 57 65 63
43 37 34 35 35 34 35 36 35 36 35 31 29 28 27 26 25 24 22 21 21 20 18 18 18 19 20 22 25 29 29 34 29 34 40 44 48 50 50 51 53 57 63 65
45 37 34 34 33 34 34 35 35 36 39 41 37 28 22 25 27 27 26 24 24 23 24 22 20 22 21 19 24 27 30 29 38 36 42 40 46 52 57 56 58 60 51 51
50 37 32 31 31 29 32 35 36 38 41 42 42 40 36 26 20 19 22 24 24 23 23 22 23 22 23 23 22 25 28 32 33 41 41 42 39 43 54 63 70 63 57 55
53 38 32 29 29 26 29 32 35 37 38 40 40 41 40 38 35 31 25 21 22 24 25 25 25 23 24 24 26 27 26 29 33 35 41 45 47 46 43 49 55 58 61 57
50 43 33 27 28 24 25 29 31 35 36 38 39 40 40 40 39 37 34 30 27 23 21 18 21 26 27 26 28 29 30 30 31 35 39 42 49 50 49 53 50 50 53 54
47 45 34 28 26 23 23 26 28 31 34 36 37 39 40 41 41 39 38 36 34 32 30 26 23 21 24 30 32 34 35 34 33 34 36 40 42 45 49 51 50 52 50 51
43 45 35 29 25 23 20 23 24 27 30 34 36 38 40 43 44 44 43 41 39 37 35 32 30 29 28 29 31 35 38 38 37 37 38 40 41 44 47 50 53 57 59 58
39 42 38 29 25 24 20 20 22 24 27 30 34 36 40 43 46 47 46 45 43 42 39 36 35 32 29 32 35 36 37 37 37 38 40 42 44 46 47 48 50 54 59 62
36 39 40 30 25 23 21 17 19 23 25 28 31 34 37 42 45 46 45 45 46 47 48 46 46 40 30 25 27 32 37 39 40 40 40 41 43 47 50 52 52 53 54 58
34 36 37 33 26 23 22 18 18 21 24 26 29 33 36 40 43 45 47 48 49 50 50 50 49 45 35 30 26 22 24 30 36 39 40 41 42 43 44 46 51 55 58 59
33 33 35 35 26 22 22 21 19 19 21 24 27 30 34 37 40 43 47 49 50 51 51 51 52 50 44 35 29 25 22 22 24 30 36 40 42 43 44 44 45 46 50 55
32 31 32 34 28 22 22 22 19 19 19 21 24 27 31 34 38 42 46 48 49 52 51 52 52 54 53 46 37 29 27 25 23 24 26 30 35 41 45 47 48 48 47 48
32 30 31 32 29 23 22 21 19 18 19 20 21 24 28 32 36 40 44 46 49 51 52 52 54 55 57 55 45 35 31 29 30 29 28 27 30 33 36 41 47 52 53 53
Wind_Direction
339 327 331 332 334 335 328 317 314 302 297 279 270 278 274 257 258 262 262 256 226 229 230 233 235 226 229 229 225 225 229 228 230 229 226 226 233 234 234 225 222 227 229 235
336 335 321 322 328 330 338 333 315 295 286 291 296 265 270 261 251 251 255 255 234 226 229 232 229 231 233 234 234 230 229 228 226 228 226 226 234 235 238 231 222 224 226 229
334 315 319 325 338 332 337 331 325 314 279 266 268 279 257 248 250 248 245 249 245 240 233 220 226 228 236 240 238 234 228 225 227 226 225 225 228 230 235 240 229 225 228 229
343 326 322 325 337 336 329 334 350 350 331 316 274 268 263 244 242 248 248 245 243 239 232 228 226 232 236 239 240 239 236 230 225 228 225 224 225 228 232 236 231 231 229 229
342 334 322 327 325 314 333 342 347 345 347 350 326 263 258 245 239 239 245 246 245 242 238 236 231 234 237 238 243 244 243 237 230 227 228 225 225 226 226 232 236 234 229 244
340 337 329 319 323 324 328 333 338 345 352 344 341 341 261 245 239 238 239 244 248 247 245 243 246 240 241 243 245 250 249 246 236 228 228 229 228 228 229 231 243 239 228 240
350 339 339 337 333 336 328 329 323 344 348 343 347 346 340 246 245 243 241 244 247 245 245 243 252 259 257 253 254 245 247 251 246 232 229 230 230 229 232 235 237 240 247 231
359 346 349 346 345 337 327 328 329 331 339 338 344 343 344 333 254 245 246 246 250 254 251 245 243 256 274 269 261 251 246 250 250 240 233 232 231 231 229 233 237 240 244 241
359 350 350 338 337 331 331 333 329 336 325 333 335 339 344 344 341 265 245 251 250 254 257 255 240 245 263 266 264 264 250 246 229 225 230 239 231 230 230 231 232 236 237 243
4 7 2 331 317 316 323 328 326 330 328 325 326 336 336 337 342 344 283 241 250 254 256 256 254 244 243 251 255 269 243 234 223 228 233 238 235 230 232 232 232 236 242 243
8 13 15 3 353 349 349 347 339 334 333 320 323 332 336 333 331 330 337 298 248 249 256 258 257 256 246 241 237 257 243 237 235 229 236 223 224 228 232 236 236 238 241 243
9 12 13 15 16 14 10 15 2 349 338 324 319 322 332 335 335 336 331 326 312 259 249 254 256 255 255 255 242 236 248 230 223 224 222 227 223 224 218 221 220 216 228 231
10 10 10 13 15 18 17 9 2 356 348 333 320 319 321 323 327 331 334 332 329 319 287 251 247 251 253 255 261 241 244 242 231 218 221 224 222 228 223 232 240 236 231 233
6 6 6 7 9 13 13 7 359 349 338 331 322 312 308 312 316 317 319 322 325 319 313 300 264 249 244 248 249 254 240 237 240 240 228 229 227 224 230 237 235 236 239 238
3 3 3 2 5 6 6 5 5 4 356 341 322 308 301 300 302 304 307 309 308 307 307 304 301 282 259 245 242 241 248 238 238 239 234 235 235 238 235 233 235 234 238 232
2 2 1 3 6 9 13 14 12 11 13 15 10 352 324 300 293 294 298 299 299 300 301 301 296 292 284 263 246 240 239 244 234 236 241 233 236 236 236 230 235 241 237 243
2 0 358 0 3 10 10 11 12 14 17 18 20 22 20 8 343 318 303 299 299 298 295 294 290 286 285 284 271 255 247 239 240 239 233 238 233 235 237 243 243 250 249 251
2 357 355 357 2 9 11 14 15 17 19 20 22 25 25 23 23 20 10 349 324 306 295 290 284 279 275 276 278 276 265 252 246 244 240 242 240 234 236 234 235 240 243 242
358 358 353 353 358 3 9 10 13 15 18 20 21 24 25 23 19 17 15 10 7 360 345 319 292 279 274 271 272 272 270 266 256 250 248 244 241 241 240 236 235 234 235 238
352 358 353 349 353 358 2 8 10 12 13 15 16 18 20 20 16 12 9 6 1 355 346 335 324 310 289 277 268 263 263 263 262 258 253 250 247 241 242 247 248 246 240 238
347 353 353 346 346 348 349 360 4 6 8 9 11 10 11 13 13 10 6 2 359 355 350 341 327 308 292 282 276 269 264 261 258 258 258 258 256 252 248 242 240 244 248 248
340 348 353 345 340 340 339 348 357 1 3 6 6 5 7 9 8 8 7 5 2 1 1 353 344 329 301 275 266 265 263 263 262 261 258 256 256 255 255 253 249 247 244 242
335 343 350 345 335 332 334 336 347 357 358 0 2 4 6 6 5 7 8 6 7 7 6 5 2 355 347 324 294 273 265 265 264 264 263 262 261 257 255 254 253 252 252 252
330 335 343 346 335 325 328 325 333 345 352 357 360 3 3 3 2 4 6 8 10 10 9 11 11 5 356 355 347 321 291 273 268 268 270 269 268 266 265 262 256 252 252 251
325 328 337 343 335 320 319 322 321 332 344 351 357 2 0 0 1 4 7 8 11 13 12 14 18 16 8 357 351 346 336 318 296 280 271 268 267 269 267 266 266 264 261 257
318 322 329 338 337 318 310 317 316 322 337 346 353 357 357 359 2 5 7 11 12 15 14 14 16 18 18 11 359 346 345 344 331 314 301 291 281 274 268 266 265 264 263 261
312 316 322 332 335 316 303 308 312 315 326 338 347 352 355 359 2 5 8 10 14 14 15 15 15 15 15 12 6 353 345 345 346 340 328 311 297 286 280 274 269 263 260 259